Flag for Kazakhstan Weather past 2 weeks in Astana, Kazakhstan

Now
39 °F

Passing clouds.


Feels Like: 32 °F
Forecast: 38 / 55 °F
Wind: 10 mph from Southwest

Location: Astana

Current Time: Sep 20, 2014 at 4:06:42 AM

Latest Report: Sep 20, 2014 at 3:30 AM


Visibility: N/A

Pressure: 30.27 "Hg

Humidity: 70%

Dew point: 30 °F

Location of AstanaLocation

Historic Weather in Astana — Graph

°F

Astana temperature yesterday

Maximum temperature yesterday: 43 °F (at 5:00 PM)
Minimum temperature yesterday: 28 °F (at 4:30 AM)
Average temperature yesterday: 37 °F

Past Weeks' High & Low Weather Summary

 TemperatureHumidityPressure
High77 °F (Sep 6, 3:30 PM)100% (Sep 18, 7:00 AM)30.39 "Hg (Sep 18, 7:00 AM)
Low27 °F (Sep 12, 7:00 AM)13% (Sep 6, 1:30 PM)29.50 "Hg (Sep 17, 5:30 PM)
Average51 °F59%29.98 "Hg
* Reported Sep 5 2:00 AM — Sep 20 2:30 AM, Astana, Weather by CustomWeather, © 2014

Note: Actual official high and low records may vary slightly from our data, if they occured in-between our weather recording intervals... More about our weather records

Advertising

Astana weather history for previous 24 hours

 ConditionsComfort  
Time TempWeatherWind HumidityBarometerVisibility
2:30 AM
Sep 20
36 °FPassing clouds.10 mph75%30.27 "HgN/A
2:00 AM34 °FPassing clouds.10 mph81%30.27 "HgN/A
1:30 AM37 °FPassing clouds.8 mph70%30.27 "HgN/A
1:00 AM39 °FOvercast.8 mph61%30.27 "HgN/A
12:30 AM39 °FOvercast.10 mph61%30.27 "HgN/A
12:00 AM37 °FOvercast.10 mph65%30.27 "HgN/A
11:30 PM
Sep 19
36 °FOvercast.8 mph70%30.27 "HgN/A
11:00 PM36 °FPassing clouds.8 mph70%30.27 "HgN/A
10:30 PM37 °FPassing clouds.8 mph60%30.27 "HgN/A
10:00 PM36 °FPassing clouds.10 mph65%30.27 "HgN/A
9:30 PM37 °FPassing clouds.10 mph60%30.27 "HgN/A
9:00 PM37 °FPassing clouds.10 mph60%30.24 "HgN/A
8:30 PM37 °FPassing clouds.6 mph60%30.24 "HgN/A
8:00 PM39 °FPassing clouds.8 mph52%30.24 "HgN/A
7:30 PM41 °FPassing clouds.10 mph49%30.21 "HgN/A
7:00 PM43 °FPartly sunny.10 mph46%30.21 "HgN/A
6:30 PM43 °FPassing clouds.13 mph46%30.21 "HgN/A
6:00 PM43 °FSunny.15 mph42%30.18 "Hg10 mi
5:30 PM43 °FOvercast.17 mph42%30.18 "HgN/A
5:00 PM43 °FOvercast.20 mph39%30.15 "HgN/A
4:30 PM41 °FOvercast.17 mph45%30.15 "HgN/A
4:00 PM41 °FOvercast.20 mph45%30.15 "HgN/A
3:30 PM41 °FMore clouds than sun.17 mph45%30.15 "HgN/A
3:00 PM41 °FMore clouds than sun.17 mph45%30.12 "HgN/A
2:30 PM41 °FMore clouds than sun.20 mph45%30.12 "HgN/A
2:00 PM41 °FMore clouds than sun.20 mph45%30.12 "HgN/A
1:30 PM41 °FMore clouds than sun.20 mph45%30.09 "HgN/A
1:00 PM41 °FMore clouds than sun.20 mph49%30.09 "HgN/A
12:30 PM41 °FMore clouds than sun.22 mph49%30.09 "HgN/A
12:00 PM41 °FMore clouds than sun.17 mph45%30.07 "HgN/A
11:30 AM41 °FMore clouds than sun.13 mph57%30.07 "HgN/A
11:00 AM39 °FOvercast.20 mph52%30.07 "HgN/A
10:30 AM39 °FPassing clouds.15 mph52%30.07 "HgN/A
10:00 AM39 °FSunny.17 mph56%30.07 "Hg10 mi
9:30 AM37 °FPartly sunny.15 mph65%30.04 "HgN/A
9:00 AM36 °FPartly sunny.17 mph70%30.04 "HgN/A
8:30 AM34 °FOvercast.15 mph75%30.01 "HgN/A
8:00 AM34 °FOvercast.15 mph75%30.01 "HgN/A
7:30 AM34 °FPartly sunny.13 mph75%30.01 "HgN/A
7:00 AM32 °FPartly sunny.13 mph80%30.01 "HgN/A
6:30 AM32 °FPassing clouds.13 mph80%29.98 "HgN/A
6:00 AM32 °FClear.13 mph75%29.98 "Hg10 mi
5:30 AM32 °FClear.13 mph75%29.98 "Hg10 mi
5:00 AM30 °FClear.10 mph80%29.98 "Hg10 mi
4:30 AM28 °FClear.8 mph86%29.98 "Hg10 mi
4:00 AM30 °FClear.8 mph86%29.98 "Hg10 mi
Weather by CustomWeather, © 2014

See weather overviewHow to use our weather pages